EZY84JM GMAD-LPMA

Flight info

Callsign EZY84JM
Flight time 1h 16m
Altitude 34000
Route MOGBA DCT LEPRU DCT EKNOT
Aircraft A320/M-SDE3FGHIRWY/LB1

Departure

Time 2026-04-22 13:50
Airport Al Massira Airport (GMAD)

Arrival

Time 2026-04-22 15:07
Airport Cristiano Ronaldo International Airport (LPMA)
Time Latitude Longitude Altitude Speed Heading
2026-04-22 13:30 30.32879 -9.40891 231 ft 0 kts
2026-04-22 13:41 30.32874 -9.40891 231 ft 3 kts
2026-04-22 13:41 30.32847 -9.40892 233 ft 4 kts
2026-04-22 13:41 30.32820 -9.40893 235 ft 4 kts
2026-04-22 13:41 30.32793 -9.40894 234 ft 3 kts
2026-04-22 13:42 30.32788 -9.40894 234 ft 0 kts
2026-04-22 13:45 30.32794 -9.40892 235 ft 4 kts 14°
2026-04-22 13:45 30.32803 -9.40848 231 ft 9 kts 89°
2026-04-22 13:45 30.32803 -9.40763 231 ft 11 kts 91°
2026-04-22 13:45 30.32788 -9.40687 233 ft 11 kts 118°
2026-04-22 13:46 30.32706 -9.40665 231 ft 14 kts 180°
2026-04-22 13:46 30.32596 -9.40668 231 ft 17 kts 182°
2026-04-22 13:46 30.32483 -9.40669 231 ft 16 kts 172°
2026-04-22 13:46 30.32436 -9.40565 231 ft 16 kts 90°
2026-04-22 13:47 30.32434 -9.40443 231 ft 15 kts 91°
2026-04-22 13:47 30.32431 -9.40323 231 ft 17 kts 92°
2026-04-22 13:47 30.32427 -9.40166 231 ft 22 kts 90°
2026-04-22 13:47 30.32422 -9.39983 231 ft 22 kts 92°
2026-04-22 13:48 30.32419 -9.39825 233 ft 17 kts 91°
2026-04-22 13:48 30.32416 -9.39697 231 ft 15 kts 91°
2026-04-22 13:48 30.32414 -9.39578 231 ft 14 kts 92°
2026-04-22 13:48 30.32371 -9.39497 231 ft 12 kts 170°
2026-04-22 13:49 30.32278 -9.39497 231 ft 15 kts 186°
2026-04-22 13:49 30.32220 -9.39526 231 ft 6 kts 272°
2026-04-22 13:49 30.32225 -9.39560 231 ft 0 kts 272°
2026-04-22 13:49 30.32225 -9.39561 231 ft 1 kts 272°
2026-04-22 13:50 30.32228 -9.39712 231 ft 52 kts 271°
2026-04-22 13:50 30.32242 -9.40398 231 ft 116 kts 272°
2026-04-22 13:50 30.32275 -9.41495 462 ft 145 kts 271°
2026-04-22 13:50 30.32332 -9.42661 1071 ft 146 kts 275°
2026-04-22 13:51 30.32398 -9.43866 1634 ft 158 kts 271°
2026-04-22 13:51 30.32478 -9.45220 1984 ft 180 kts 280°
2026-04-22 13:51 30.33094 -9.46576 2334 ft 206 kts 308°
2026-04-22 13:51 30.34102 -9.47866 2774 ft 227 kts 310°
2026-04-22 13:52 30.35229 -9.49279 3221 ft 251 kts 310°
2026-04-22 13:52 30.36460 -9.50818 3842 ft 267 kts 309°
2026-04-22 13:52 30.37723 -9.52402 4708 ft 275 kts 310°
2026-04-22 13:52 30.39043 -9.54061 5509 ft 284 kts 310°
2026-04-22 13:53 30.40401 -9.55770 6323 ft 292 kts 309°
2026-04-22 13:53 30.41790 -9.57523 7146 ft 298 kts 309°
2026-04-22 13:53 30.43199 -9.59307 8021 ft 302 kts 309°
2026-04-22 13:53 30.43603 -9.59819 8270 ft 303 kts 309°
2026-04-22 13:54 30.45035 -9.61635 9185 ft 307 kts 308°
2026-04-22 13:54 30.46480 -9.63467 10051 ft 311 kts 308°
2026-04-22 13:54 30.47993 -9.65390 10401 ft 334 kts 308°
2026-04-22 13:54 30.49574 -9.67402 10914 ft 347 kts 308°
2026-04-22 13:55 30.51210 -9.69482 11698 ft 351 kts 308°
2026-04-22 13:55 30.52860 -9.71581 12545 ft 353 kts 308°
2026-04-22 13:55 30.54517 -9.73688 13389 ft 354 kts 308°
2026-04-22 13:55 30.56027 -9.75935 14136 ft 353 kts 297°
2026-04-22 13:56 30.57085 -9.78487 14823 ft 351 kts 286°
2026-04-22 13:56 30.57905 -9.81163 15500 ft 353 kts 286°
2026-04-22 13:56 30.58733 -9.83865 16174 ft 357 kts 287°
2026-04-22 13:56 30.59559 -9.86554 16827 ft 360 kts 287°
2026-04-22 13:57 30.60406 -9.89308 17488 ft 364 kts 287°
2026-04-22 13:57 30.61263 -9.92094 18159 ft 368 kts 287°
2026-04-22 13:57 30.62128 -9.94905 18730 ft 371 kts 287°
2026-04-22 13:57 30.62999 -9.97736 19330 ft 374 kts 287°
2026-04-22 13:58 30.63875 -10.00590 19931 ft 376 kts 287°
2026-04-22 13:58 30.64753 -10.03456 20540 ft 378 kts 287°
2026-04-22 13:58 30.65639 -10.06339 21136 ft 380 kts 287°
2026-04-22 13:58 30.66528 -10.09238 21714 ft 382 kts 287°
2026-04-22 13:59 30.67409 -10.12117 22283 ft 384 kts 287°
2026-04-22 13:59 30.68306 -10.15048 22851 ft 386 kts 287°
2026-04-22 13:59 30.69204 -10.17992 23433 ft 388 kts 288°
2026-04-22 13:59 30.70106 -10.20950 23915 ft 390 kts 287°
2026-04-22 14:00 30.71009 -10.23925 24378 ft 391 kts 287°
2026-04-22 14:00 30.71914 -10.26910 24844 ft 392 kts 287°
2026-04-22 14:00 30.72824 -10.29906 25305 ft 394 kts 287°
2026-04-22 14:00 30.73737 -10.32911 25752 ft 395 kts 287°
2026-04-22 14:01 30.74654 -10.35932 26196 ft 397 kts 287°
2026-04-22 14:01 30.75559 -10.38927 26626 ft 399 kts 287°
2026-04-22 14:01 30.76479 -10.41969 27052 ft 400 kts 287°
2026-04-22 14:01 30.77406 -10.45032 27477 ft 402 kts 287°
2026-04-22 14:02 30.78337 -10.48106 27897 ft 404 kts 287°
2026-04-22 14:02 30.79271 -10.51192 28305 ft 406 kts 287°
2026-04-22 14:02 30.80208 -10.54300 28700 ft 408 kts 287°
2026-04-22 14:02 30.81148 -10.57422 29090 ft 410 kts 287°
2026-04-22 14:03 30.82091 -10.60555 29499 ft 412 kts 286°
2026-04-22 14:03 30.83027 -10.63669 29882 ft 414 kts 286°
2026-04-22 14:03 30.83961 -10.66844 35140 ft 415 kts 283°
2026-04-22 14:03 30.84822 -10.70075 34276 ft 426 kts 285°
2026-04-22 14:04 30.85774 -10.73287 33991 ft 411 kts 287°
2026-04-22 14:04 30.86734 -10.76352 34008 ft 395 kts 287°
2026-04-22 14:04 30.88602 -10.82268 34011 ft 386 kts 287°
2026-04-22 14:05 30.90388 -10.88149 34016 ft 385 kts 286°
2026-04-22 14:06 30.92983 -10.96937 34013 ft 384 kts 286°
2026-04-22 14:06 30.94728 -11.02821 34016 ft 384 kts 286°
2026-04-22 14:07 30.96474 -11.08699 34014 ft 384 kts 286°
2026-04-22 14:07 30.98219 -11.14581 34016 ft 384 kts 286°
2026-04-22 14:08 30.99947 -11.20429 34017 ft 384 kts 286°
2026-04-22 14:08 31.01687 -11.26317 34021 ft 384 kts 285°
2026-04-22 14:09 31.03419 -11.32202 34022 ft 384 kts 285°
2026-04-22 14:09 31.05149 -11.38089 34023 ft 384 kts 285°
2026-04-22 14:10 31.06864 -11.43942 34022 ft 384 kts 285°
2026-04-22 14:10 31.08587 -11.49832 34023 ft 384 kts 285°
2026-04-22 14:11 31.10307 -11.55730 34023 ft 384 kts 285°
2026-04-22 14:11 31.12021 -11.61619 34024 ft 384 kts 285°
2026-04-22 14:12 31.13741 -11.67517 34029 ft 384 kts 285°
2026-04-22 14:12 31.15441 -11.73379 34020 ft 384 kts 285°
2026-04-22 14:13 31.17148 -11.79278 34026 ft 383 kts 285°
2026-04-22 14:13 31.18857 -11.85177 34026 ft 383 kts 285°
2026-04-22 14:14 31.20566 -11.91080 34021 ft 384 kts 285°
2026-04-22 14:14 31.22253 -11.96948 34022 ft 384 kts 284°
2026-04-22 14:15 31.23952 -12.02859 34021 ft 384 kts 285°
2026-04-22 14:15 31.25651 -12.08778 34018 ft 384 kts 284°
2026-04-22 14:16 31.27348 -12.14700 34023 ft 384 kts 284°
2026-04-22 14:16 31.29046 -12.20627 34024 ft 385 kts 284°
2026-04-22 14:17 31.30736 -12.26519 34028 ft 385 kts 284°
2026-04-22 14:17 31.32426 -12.32458 34035 ft 385 kts 284°
2026-04-22 14:18 31.34109 -12.38403 34033 ft 385 kts 284°
2026-04-22 14:18 31.35794 -12.44350 34035 ft 385 kts 284°
2026-04-22 14:19 31.37484 -12.50290 34031 ft 385 kts 284°
2026-04-22 14:19 31.39159 -12.56197 34034 ft 385 kts 284°
2026-04-22 14:20 31.41677 -12.65124 34033 ft 385 kts 284°
2026-04-22 14:20 31.43345 -12.71079 34032 ft 385 kts 284°
2026-04-22 14:21 31.45831 -12.79978 34034 ft 385 kts 284°
2026-04-22 14:22 31.48331 -12.88914 34027 ft 385 kts 283°
2026-04-22 14:23 31.50811 -12.97821 34033 ft 385 kts 283°
2026-04-22 14:23 31.52311 -13.03838 34030 ft 384 kts 280°
2026-04-22 14:24 31.53568 -13.09906 34035 ft 383 kts 279°
2026-04-22 14:24 31.54802 -13.15984 34041 ft 383 kts 279°
2026-04-22 14:25 31.56083 -13.22045 34034 ft 383 kts 280°
2026-04-22 14:25 31.57377 -13.28057 34037 ft 383 kts 280°
2026-04-22 14:26 31.58677 -13.34111 34029 ft 383 kts 279°
2026-04-22 14:26 31.59967 -13.40161 34036 ft 383 kts 279°
2026-04-22 14:27 31.61244 -13.46216 34026 ft 383 kts 279°
2026-04-22 14:27 31.62518 -13.52280 34037 ft 383 kts 279°
2026-04-22 14:28 31.63790 -13.58303 34026 ft 383 kts 279°
2026-04-22 14:28 31.65061 -13.64373 34025 ft 383 kts 279°
2026-04-22 14:29 31.66329 -13.70440 34025 ft 383 kts 279°
2026-04-22 14:29 31.67596 -13.76506 34025 ft 383 kts 279°
2026-04-22 14:30 31.68854 -13.82537 34026 ft 383 kts 279°
2026-04-22 14:30 31.70121 -13.88608 34030 ft 383 kts 279°
2026-04-22 14:31 31.71380 -13.94681 34030 ft 383 kts 279°
2026-04-22 14:31 31.72635 -14.00756 34029 ft 383 kts 279°
2026-04-22 14:32 31.73889 -14.06834 34030 ft 383 kts 279°
2026-04-22 14:32 31.75132 -14.12872 34032 ft 383 kts 278°
2026-04-22 14:33 31.76384 -14.18956 34033 ft 383 kts 279°
2026-04-22 14:33 31.77635 -14.25037 34031 ft 383 kts 278°
2026-04-22 14:34 31.78875 -14.31121 34029 ft 383 kts 278°
2026-04-22 14:34 31.80102 -14.37215 34028 ft 383 kts 278°
2026-04-22 14:35 31.81331 -14.43259 34031 ft 383 kts 278°
2026-04-22 14:35 31.82570 -14.49355 34029 ft 383 kts 278°
2026-04-22 14:36 31.83804 -14.55443 34028 ft 383 kts 278°
2026-04-22 14:36 31.85044 -14.61546 34026 ft 383 kts 278°
2026-04-22 14:37 31.86258 -14.67602 34028 ft 383 kts 278°
2026-04-22 14:37 31.87481 -14.73704 34028 ft 383 kts 278°
2026-04-22 14:38 31.88702 -14.79813 34028 ft 383 kts 278°
2026-04-22 14:38 31.89917 -14.85884 34026 ft 384 kts 278°
2026-04-22 14:39 31.91131 -14.91996 34029 ft 384 kts 278°
2026-04-22 14:39 31.92335 -14.98111 34028 ft 384 kts 278°
2026-04-22 14:40 31.94157 -15.07286 34025 ft 384 kts 278°
2026-04-22 14:40 31.95370 -15.13410 34027 ft 384 kts 277°
2026-04-22 14:41 31.96561 -15.19498 34028 ft 384 kts 277°
2026-04-22 14:41 31.97764 -15.25619 34024 ft 384 kts 277°
2026-04-22 14:42 31.98963 -15.31751 34030 ft 384 kts 277°
2026-04-22 14:42 32.00154 -15.37873 34030 ft 384 kts 277°
2026-04-22 14:43 32.01341 -15.43967 34027 ft 384 kts 277°
2026-04-22 14:43 32.02542 -15.50221 33929 ft 399 kts 277°
2026-04-22 14:44 32.03153 -15.53394 32957 ft 397 kts 277°
2026-04-22 14:44 32.03767 -15.56560 32092 ft 393 kts 277°
2026-04-22 14:44 32.04373 -15.59666 31698 ft 386 kts 277°
2026-04-22 14:44 32.04969 -15.62730 31241 ft 382 kts 277°
2026-04-22 14:45 32.05556 -15.65758 30791 ft 377 kts 277°
2026-04-22 14:45 32.06134 -15.68757 30362 ft 373 kts 276°
2026-04-22 14:45 32.06704 -15.71723 29915 ft 369 kts 276°
2026-04-22 14:45 32.07257 -15.74610 29481 ft 363 kts 276°
2026-04-22 14:46 32.07807 -15.77487 29077 ft 357 kts 276°
2026-04-22 14:46 32.08350 -15.80329 28690 ft 352 kts 276°
2026-04-22 14:46 32.08883 -15.83124 28305 ft 346 kts 276°
2026-04-22 14:46 32.09407 -15.85872 27932 ft 341 kts 276°
2026-04-22 14:47 32.09921 -15.88580 27546 ft 336 kts 276°
2026-04-22 14:47 32.10428 -15.91251 27171 ft 332 kts 276°
2026-04-22 14:47 32.10929 -15.93895 26787 ft 328 kts 276°
2026-04-22 14:47 32.11424 -15.96509 26395 ft 325 kts 275°
2026-04-22 14:48 32.11907 -15.99064 26024 ft 322 kts 275°
2026-04-22 14:48 32.12392 -16.01634 25624 ft 320 kts 275°
2026-04-22 14:48 32.12874 -16.04189 25229 ft 318 kts 275°
2026-04-22 14:48 32.13351 -16.06720 24835 ft 316 kts 275°
2026-04-22 14:49 32.13825 -16.09240 24425 ft 314 kts 275°
2026-04-22 14:49 32.14299 -16.11754 24023 ft 313 kts 275°
2026-04-22 14:49 32.14770 -16.14253 23621 ft 312 kts 275°
2026-04-22 14:49 32.15239 -16.16748 23165 ft 311 kts 275°
2026-04-22 14:50 32.15706 -16.19230 22760 ft 308 kts 275°
2026-04-22 14:50 32.16160 -16.21653 22375 ft 306 kts 275°
2026-04-22 14:50 32.16618 -16.24100 21988 ft 304 kts 276°
2026-04-22 14:50 32.17074 -16.26534 21570 ft 304 kts 276°
2026-04-22 14:51 32.17590 -16.28955 21165 ft 307 kts 282°
2026-04-22 14:51 32.18503 -16.31262 20740 ft 315 kts 294°
2026-04-22 14:51 32.19670 -16.33465 20298 ft 317 kts 295°
2026-04-22 14:51 32.20844 -16.35678 19858 ft 318 kts 295°
2026-04-22 14:52 32.22002 -16.37867 19440 ft 319 kts 295°
2026-04-22 14:52 32.23177 -16.40096 19005 ft 321 kts 295°
2026-04-22 14:52 32.24356 -16.42333 18571 ft 322 kts 295°
2026-04-22 14:52 32.25541 -16.44588 18106 ft 324 kts 295°
2026-04-22 14:53 32.26727 -16.46844 17664 ft 324 kts 296°
2026-04-22 14:53 32.27915 -16.49106 17228 ft 323 kts 296°
2026-04-22 14:53 32.29099 -16.51362 16799 ft 323 kts 296°
2026-04-22 14:53 32.30282 -16.53618 16384 ft 323 kts 296°
2026-04-22 14:54 32.31464 -16.55873 15966 ft 323 kts 296°
2026-04-22 14:54 32.32631 -16.58102 15559 ft 323 kts 297°
2026-04-22 14:54 32.33815 -16.60363 15137 ft 324 kts 297°
2026-04-22 14:54 32.35001 -16.62629 14724 ft 324 kts 297°
2026-04-22 14:55 32.36187 -16.64898 14309 ft 324 kts 297°
2026-04-22 14:55 32.37372 -16.67168 13891 ft 325 kts 297°
2026-04-22 14:55 32.38560 -16.69443 13435 ft 325 kts 297°
2026-04-22 14:55 32.39744 -16.71719 13011 ft 324 kts 297°
2026-04-22 14:56 32.40923 -16.73985 12617 ft 322 kts 298°
2026-04-22 14:56 32.42078 -16.76202 12191 ft 321 kts 298°
2026-04-22 14:56 32.43239 -16.78426 11966 ft 313 kts 298°
2026-04-22 14:56 32.44506 -16.80473 11841 ft 307 kts 314°
2026-04-22 14:57 32.46338 -16.81713 11712 ft 305 kts 342°
2026-04-22 14:57 32.48430 -16.81806 11593 ft 303 kts 11°
2026-04-22 14:57 32.50412 -16.81041 11357 ft 299 kts 18°
2026-04-22 14:57 32.52340 -16.80124 11062 ft 298 kts 27°
2026-04-22 14:58 32.54037 -16.78723 10769 ft 297 kts 42°
2026-04-22 14:58 32.55508 -16.77021 10418 ft 294 kts 44°
2026-04-22 14:58 32.56943 -16.75374 10190 ft 280 kts 44°
2026-04-22 14:58 32.58319 -16.73814 9823 ft 275 kts 43°
2026-04-22 14:59 32.59693 -16.72261 9340 ft 272 kts 43°
2026-04-22 14:59 32.61057 -16.70718 8872 ft 269 kts 43°
2026-04-22 14:59 32.62405 -16.69184 8399 ft 267 kts 43°
2026-04-22 14:59 32.63739 -16.67661 7916 ft 266 kts 43°
2026-04-22 15:00 32.65068 -16.66142 7427 ft 264 kts 43°
2026-04-22 15:00 32.66385 -16.64637 6946 ft 262 kts 43°
2026-04-22 15:00 32.67678 -16.63164 6608 ft 254 kts 43°
2026-04-22 15:00 32.68920 -16.61745 6270 ft 248 kts 43°
2026-04-22 15:01 32.70149 -16.60343 5914 ft 241 kts 42°
2026-04-22 15:01 32.71467 -16.59251 5564 ft 225 kts 23°
2026-04-22 15:01 32.72904 -16.58723 5235 ft 208 kts
2026-04-22 15:01 32.74309 -16.58716 4889 ft 198 kts 348°
2026-04-22 15:02 32.75602 -16.59150 4529 ft 191 kts 333°
2026-04-22 15:02 32.76729 -16.59954 4169 ft 187 kts 317°
2026-04-22 15:02 32.77624 -16.61049 3809 ft 183 kts 303°
2026-04-22 15:02 32.78245 -16.62351 3454 ft 181 kts 289°
2026-04-22 15:03 32.78569 -16.63749 3051 ft 174 kts 276°
2026-04-22 15:03 32.78605 -16.65124 2771 ft 160 kts 263°
2026-04-22 15:03 32.78394 -16.66407 2507 ft 156 kts 252°
2026-04-22 15:03 32.77966 -16.67577 2279 ft 155 kts 241°
2026-04-22 15:04 32.77334 -16.68612 2068 ft 154 kts 229°
2026-04-22 15:04 32.76574 -16.69508 1845 ft 154 kts 225°
2026-04-22 15:04 32.75806 -16.70397 1647 ft 155 kts 226°
2026-04-22 15:04 32.75062 -16.71268 1460 ft 141 kts 226°
2026-04-22 15:05 32.74386 -16.72062 1259 ft 133 kts 224°
2026-04-22 15:05 32.73749 -16.72812 1094 ft 129 kts 224°
2026-04-22 15:05 32.73135 -16.73562 931 ft 125 kts 224°
2026-04-22 15:05 32.72522 -16.74280 768 ft 123 kts 222°
2026-04-22 15:06 32.72114 -16.74744 660 ft 122 kts 223°
2026-04-22 15:06 32.71316 -16.75665 452 ft 118 kts 225°
2026-04-22 15:06 32.70728 -16.76345 257 ft 118 kts 221°
2026-04-22 15:06 32.70175 -16.76988 194 ft 87 kts 224°
2026-04-22 15:07 32.69890 -16.77321 190 ft 47 kts 224°
2026-04-22 15:07 32.69675 -16.77567 179 ft 41 kts 226°
2026-04-22 15:07 32.69483 -16.77793 173 ft 36 kts 225°
2026-04-22 15:07 32.69347 -16.77951 169 ft 15 kts 220°
2026-04-22 15:08 32.69289 -16.77911 169 ft 12 kts 94°
2026-04-22 15:08 32.69314 -16.77827 169 ft 11 kts 54°
2026-04-22 15:08 32.69362 -16.77765 169 ft 10 kts 45°
2026-04-22 15:08 32.69396 -16.77724 169 ft 5 kts 49°
2026-04-22 15:09 32.69386 -16.77691 169 ft 4 kts 134°
2026-04-22 15:09 32.69366 -16.77669 169 ft 2 kts 137°
2026-04-22 15:09 32.69360 -16.77662 169 ft 0 kts 138°